Overview Statistics Trail Chart Weather Telemetry Raw packets
 

This is the latest recevied weather packets stored in our database for station/object W0CHP-13. If no packets are shown the sender has not sent any weather packets the latest 10 day(s).

<< 27 28 29 30 31 32 33 >>
Time Temp. Humidity Pressure Rain* Wind** Luminosity Snow
1788289817 31.67° C 54% 1012.3 hPa 0 mm - 283 W/m² -
1788289215 31.67° C 53% 1012.3 hPa 0 mm - 406 W/m² -
1788288617 31.67° C 55% 1012.6 hPa 0 mm - 409 W/m² -
1788288015 30.56° C 55% 1012.6 hPa 0 mm - 528 W/m² -
1788287417 30.56° C 57% 1012.7 hPa 0 mm - 485 W/m² -
1788286815 30.56° C 57% 1012.7 hPa 0 mm - 386 W/m² -
1788286218 31.11° C 58% 1012.6 hPa 0 mm - 378 W/m² -
1788285615 31.11° C 57% 1013 hPa 0 mm - 340 W/m² -
1788285018 31.67° C 58% 1013 hPa 0 mm - 677 W/m² -
1788284416 31.11° C 57% 1012.7 hPa 0 mm - 716 W/m² -
1788283817 31.11° C 60% 1013 hPa 0 mm - 696 W/m² -
1788283215 31.11° C 59% 1013.3 hPa 0 mm - 690 W/m² -
1788282617 30.56° C 58% 1013.1 hPa 0 mm - 680 W/m² -
1788282016 30° C 65% 1013 hPa 0 mm - 670 W/m² -
1788281418 30° C 69% 1013.4 hPa 0 mm - 655 W/m² -
1788280816 30° C 66% 1013 hPa 0 mm - 644 W/m² -
1788280218 30° C 67% 1013 hPa 0 mm - 630 W/m² -
1788279617 29.44° C 68% 1013 hPa 0 mm - 614 W/m² -
1788279015 28.89° C 69% 1012.7 hPa 0 mm - 597 W/m² -
1788278418 28.33° C 70% 1013.1 hPa 0 mm - 576 W/m² -
1788277816 27.78° C 74% 1013 hPa 0 mm - 564 W/m² -
1788277218 27.78° C 76% 1013 hPa 0 mm - 535 W/m² -
1788276616 26.67° C 78% 1013 hPa 0 mm - 467 W/m² -
1788276025 26.11° C 79% 1013 hPa 0 mm - 430 W/m² -
1788275416 26.11° C 80% 1013.3 hPa 0 mm - 456 W/m² -

* Rain latest hour (hover to see other rain measurements)
** Current wind speed in m/s (hover to see current wind gust speed)